Weather History for KHUM - October, 2012

Change the Weather History Date:

Friday, October 19, 2012

  Actual Average Record
Temperature  
Mean Temperature 67 °F -  
Max Temperature 80 °F 79 °F 91 °F (1947)
Min Temperature 54 °F 55 °F 36 °F (1948)
Cooling Degree Days 2    
Growing Degree Days 17 (Base 50)    
Moisture  
Dew Point 52 °F    
Average Humidity 72    
Maximum Humidity 99    
Minimum Humidity 24    
Precipitation  
Precipitation 0.00 in - - ()
Sea Level Pressure  
Sea Level Pressure 29.92 in    
Wind  
Wind Speed 3 mph (NW)    
Max Wind Speed 12 mph    
Max Gust Speed -    
Visibility 9 miles    
Events      
Averages and records for this station are not official NWS values.
T = Trace of Precipitation, MM = Missing Value Source: NWS Daily Summary

Daily Weather History Graph

Daily Weather History Graph

Search for Another Location

Airport or City:

Trip Planner

Search our weather history database for the weather conditions in past years. The results will help you decide how hot, cold, wet, or windy it might be!

Date:

Astronomy

Oct. 19, 2012 Rise Set
Actual Time 7:07 AM CDT 6:27 PM CDT
Civil Twilight 6:42 AM CDT 6:51 PM CDT
Nautical Twilight 6:15 AM CDT 7:19 PM CDT
Astronomical Twilight 5:47 AM CDT 7:46 PM CDT
Moon 11:35 AM CDT (10/19) 10:20 PM CDT (10/19)
Length of Visible Light 12h 08m
Length of Day
11h 20m
Waxing Crescent, 24% of the Moon is Illuminated
Oct 19
Waxing Crescent
Oct 21
First Quarter
Oct 29
Full
Nov 6
Last Quarter
Nov 13
New

Hourly Weather History & Observations

Time (CDT) Temp. Dew Point Humidity Pressure Visibility Wind Dir Wind Speed Gust Speed Precip Events Conditions
1:35 AM 61.2 °F 56.1 °F 83% 29.91 in 7.0 mi Calm Calm - N/A   Scattered Clouds
1:55 AM 61.0 °F 56.3 °F 85% 29.91 in 10.0 mi Calm Calm - N/A   Scattered Clouds
2:15 AM 60.8 °F 56.7 °F 86% 29.91 in 10.0 mi North 3.5 mph - N/A   Scattered Clouds
2:35 AM 60.3 °F 56.3 °F 87% 29.91 in 7.0 mi Calm Calm - N/A   Clear
2:55 AM 59.9 °F 56.3 °F 88% 29.90 in 10.0 mi NNW 3.5 mph - N/A   Clear
3:15 AM 59.0 °F 55.8 °F 89% 29.90 in 10.0 mi North 4.6 mph - N/A   Clear
3:35 AM 59.2 °F 55.8 °F 88% 29.90 in 7.0 mi North 3.5 mph - N/A   Clear
3:55 AM 57.9 °F 55.4 °F 91% 29.89 in 10.0 mi North 3.5 mph - N/A   Scattered Clouds
4:15 AM 57.9 °F 55.2 °F 91% 29.89 in 10.0 mi North 4.6 mph - N/A   Scattered Clouds
4:35 AM 58.8 °F 56.3 °F 91% 29.90 in 7.0 mi NNW 4.6 mph - N/A   Mostly Cloudy
4:55 AM 59.0 °F 55.6 °F 88% 29.91 in 10.0 mi NNW 4.6 mph - N/A   Overcast
5:15 AM 58.1 °F 54.7 °F 88% 29.91 in 10.0 mi NNW 4.6 mph - N/A   Overcast
5:35 AM 57.2 °F 54.9 °F 92% 29.91 in 7.0 mi Calm Calm - N/A   Overcast
5:50 AM 57.2 °F 53.6 °F 88% 29.93 in 7.0 mi NNW 3.5 mph - N/A   Mostly Cloudy
5:55 AM 57.7 °F 53.8 °F 87% 29.92 in 7.0 mi Calm Calm - N/A   Overcast
6:50 AM 57.2 °F 51.8 °F 82% 29.94 in 7.0 mi NNW 4.6 mph - N/A   Scattered Clouds
7:50 AM 57.2 °F 51.8 °F 82% 29.95 in 7.0 mi NNW 4.6 mph - N/A   Partly Cloudy
8:55 AM 64.4 °F 50.0 °F 59% 29.97 in 7.0 mi NNW 11.5 mph - N/A   Partly Cloudy
9:55 AM 71.6 °F 46.4 °F 41% 29.98 in 7.0 mi NNW 11.5 mph - N/A   Partly Cloudy
10:55 AM 75.2 °F 44.6 °F 34% 29.98 in 7.0 mi NNW 11.5 mph - N/A   Clear
11:50 AM 78.8 °F 44.6 °F 30% 29.97 in 7.0 mi North 9.2 mph - N/A   Clear
12:50 PM 78.8 °F 39.2 °F 24% 29.95 in 7.0 mi NNW 9.2 mph - N/A   Clear
2:55 PM 80.6 °F 42.8 °F 26% 29.90 in 7.0 mi WNW 11.5 mph - N/A   Clear
3:50 PM 78.8 °F 42.8 °F 28% 29.89 in 7.0 mi West 9.2 mph - N/A   Clear
4:50 PM 78.8 °F 44.6 °F 30% 29.89 in 7.0 mi West 9.2 mph - N/A   Clear
5:50 PM 73.4 °F 42.8 °F 33% 29.89 in 7.0 mi WSW 9.2 mph - N/A   Clear
6:50 PM 69.8 °F 42.8 °F 38% 29.89 in 7.0 mi WSW 9.2 mph - N/A   Clear
7:15 PM 67.1 °F 50.4 °F 55% 29.90 in 10.0 mi SW 3.5 mph - N/A   Clear
7:35 PM 65.7 °F 51.8 °F 61% 29.91 in 10.0 mi WSW 3.5 mph - N/A   Clear
7:55 PM 64.8 °F 52.2 °F 64% 29.91 in 10.0 mi WSW 3.5 mph - N/A   Clear
8:15 PM 63.5 °F 53.6 °F 70% 29.92 in 10.0 mi SW 3.5 mph - N/A   Clear
8:35 PM 61.0 °F 53.8 °F 77% 29.92 in 10.0 mi SW 3.5 mph - N/A   Clear
8:55 PM 62.8 °F 53.2 °F 71% 29.92 in 10.0 mi SW 3.5 mph - N/A   Clear
9:15 PM 61.3 °F 53.8 °F 76% 29.92 in 10.0 mi SW 3.5 mph - N/A   Clear
9:35 PM 59.4 °F 53.4 °F 81% 29.93 in 10.0 mi Calm Calm - N/A   Clear
9:55 PM 58.3 °F 52.7 °F 82% 29.93 in 10.0 mi Calm Calm - N/A   Clear
10:15 PM 57.7 °F 53.2 °F 85% 29.93 in 10.0 mi Calm Calm - N/A   Clear
10:35 PM 56.3 °F 53.6 °F 91% 29.93 in 10.0 mi Calm Calm - N/A   Clear
10:55 PM 55.0 °F 53.8 °F 96% 29.93 in 10.0 mi Calm Calm - N/A   Clear
11:15 PM 55.2 °F 54.9 °F 99% 29.93 in 10.0 mi Calm Calm - N/A   Clear
11:35 PM 54.7 °F 53.4 °F 96% 29.93 in 10.0 mi Calm Calm - N/A   Clear
11:55 PM 54.3 °F 53.6 °F 97% 29.93 in 10.0 mi Calm Calm - N/A   Clear